Location: Feura Bush
(42.5779°N, 73.8787°W)
Time: 06:41:26
(UTC+00:00)

UNISAT 6 - Pass Details

Date: 13 December 2024
Orbit: 584 x 653 km, 97.7° (Epoch: 18 January)

Event Time Altitude Azimuth Distance (km) Brightness Sun altitude
Rises 22:03:52 0° 2° (N) 2,835 ? -7.5°
Reaches altitude 10° 22:06:10 10° 353° (N) 1,936 ? -7.9°
Maximum altitude 22:09:55 32° 290° (WNW) 1,029 ? -8.5°
Drops below altitude 10° 22:13:42 10° 227° (SW) 1,955 ? -9.2°
Sets 22:16:03 0° 217° (SW) 2,867 ? -9.6°
